Location: Stoke Bliss
(52.2667°N, 2.5167°W)
Time: 19:04:31
(UTC+00:00)

Cosmos 1937 Rocket - Pass Details

Date: 03 March 2021
Orbit: 747 x 780 km, 74.0° (Epoch: 17 April)

Event Time Altitude Azimuth Distance (km) Brightness Sun altitude
Rises 21:00:25 0° 335° (NNW) 3,225 7.5 -28.5°
Reaches altitude 10° 21:02:50 10° 338° (NNW) 2,291 6.6 -28.8°
Enters shadow 21:06:38 47° 359° (N) 996 4.2 -29.3°
